Sparta, WI

12:48 PM CDT on May 27, 2017 (GMT -0500)
Sparta-Fort McCoy

Weather History for KCMY - September, 2013

Change the Weather History Date:

Sunday, September 29, 2013

  Actual Average Record
Temperature  
Mean Temperature 54 °F -  
Max Temperature 71 °F 66 °F 85 °F (1953)
Min Temperature 36 °F 40 °F 19 °F (1967)
Degree Days  
Heating Degree Days 12    
Growing Degree Days 4 (Base 50)    
Moisture  
Dew Point 43 °F    
Average Humidity 77    
Maximum Humidity 100    
Minimum Humidity 35    
Precipitation  
Precipitation 0.01 in - - ()
Sea Level Pressure  
Sea Level Pressure 30.00 in    
Wind  
Wind Speed 2 mph (SSW)    
Max Wind Speed 13 mph    
Max Gust Speed 17 mph    
Visibility 8 miles    
Events Fog    
Averages and records for this station are not official NWS values.
T = Trace of Precipitation, MM = Missing Value Source: NWS Daily Summary

Daily Weather History Graph

Daily Weather History Graph

Search for Another Location

Airport or City:

Trip Planner

Search our weather history database for the weather conditions in past years. The results will help you decide how hot, cold, wet, or windy it might be!

Date:

Astronomy

Sep. 29, 2013 Rise Set
Actual Time 6:58 AM CDT 6:46 PM CDT
Civil Twilight 6:29 AM CDT 7:15 PM CDT
Nautical Twilight 5:56 AM CDT 7:49 PM CDT
Astronomical Twilight 5:22 AM CDT 8:23 PM CDT
Moon 1:30 AM CDT (9/29) 3:51 PM CDT (9/29)
Length of Visible Light 12h 45m
Length of Day
11h 48m
Waning Crescent, 27% of the Moon is Illuminated
Sep 29
Waning Crescent
Oct 4
New
Oct 11
First Quarter
Oct 18
Full
Oct 26
Last Quarter

Hourly Weather History & Observations

Time (CDT) Temp. Dew Point Humidity Pressure Visibility Wind Dir Wind Speed Gust Speed Precip Events Conditions
12:15 AM 47.1 °F 46.8 °F 99% 29.98 in 1.2 mi Calm Calm - N/A   Mist
12:35 AM 49.1 °F 48.9 °F 99% 29.99 in 7.0 mi Calm Calm - N/A   Clear
12:55 AM 45.5 °F 45.5 °F 100% 29.99 in 2.5 mi Calm Calm - N/A   Clear
1:15 AM 44.4 °F 44.4 °F 100% 30.00 in 0.8 mi Calm Calm - N/A   Mist
1:35 AM 43.3 °F 43.3 °F 100% 30.01 in 0.8 mi Calm Calm - N/A   Mist
1:55 AM 42.4 °F 42.4 °F 100% 30.01 in 0.2 mi Calm Calm - N/A Fog Fog
2:15 AM 42.3 °F 42.3 °F 100% 30.02 in 0.5 mi Calm Calm - N/A Fog Fog
2:35 AM 41.5 °F 41.5 °F 100% 30.01 in 0.2 mi Calm Calm - N/A Fog Fog
2:55 AM 40.1 °F 40.1 °F 100% 30.01 in 0.5 mi Calm Calm - N/A Fog Fog
3:15 AM 40.3 °F 40.3 °F 100% 30.01 in 0.5 mi Calm Calm - N/A Fog Fog
3:35 AM 41.0 °F 41.0 °F 100% 30.01 in 0.8 mi Calm Calm - N/A   Overcast
3:55 AM 40.1 °F 40.1 °F 100% 30.01 in 7.0 mi Calm Calm - N/A   Scattered Clouds
4:15 AM 38.8 °F 38.8 °F 100% 30.01 in 10.0 mi Calm Calm - N/A   Clear
4:35 AM 38.5 °F 38.5 °F 100% 30.01 in 10.0 mi Calm Calm - N/A   Clear
4:55 AM 37.6 °F 37.6 °F 100% 30.02 in 10.0 mi Calm Calm - N/A   Mostly Cloudy
5:15 AM 37.0 °F 37.0 °F 100% 30.02 in 10.0 mi Calm Calm - N/A   Overcast
5:35 AM 37.2 °F 37.2 °F 100% 30.02 in 10.0 mi Calm Calm - 0.01 in   Overcast
5:55 AM 36.5 °F 36.5 °F 100% 30.03 in 10.0 mi Calm Calm - 0.01 in   Mostly Cloudy
6:15 AM 36.7 °F 36.7 °F 100% 30.04 in 10.0 mi Calm Calm - N/A   Overcast
6:35 AM 37.0 °F 37.0 °F 100% 30.05 in 2.0 mi Calm Calm - N/A   Overcast
6:55 AM 36.5 °F 36.5 °F 100% 30.05 in 1.0 mi Calm Calm - N/A   Overcast
7:15 AM 36.1 °F 36.1 °F 100% 30.05 in 0.5 mi Calm Calm - N/A Fog Fog
7:35 AM 37.0 °F 37.0 °F 100% 30.06 in 0.5 mi Calm Calm - N/A Fog Fog
7:55 AM 38.5 °F 38.5 °F 100% 30.05 in 7.0 mi Calm Calm - N/A   Mostly Cloudy
8:15 AM 40.1 °F 40.1 °F 100% 30.05 in 10.0 mi Calm Calm - N/A   Clear
8:35 AM 42.8 °F 42.8 °F 100% 30.05 in 10.0 mi Calm Calm - N/A   Clear
8:55 AM 44.8 °F 44.8 °F 100% 30.05 in 10.0 mi Calm Calm - N/A   Clear
9:15 AM 46.6 °F 46.6 °F 100% 30.05 in 10.0 mi Calm Calm - N/A   Clear
9:35 AM 49.8 °F 49.6 °F 99% 30.05 in 10.0 mi Calm Calm - N/A   Clear
9:55 AM 52.5 °F 52.2 °F 99% 30.05 in 10.0 mi Calm Calm - N/A   Clear
10:15 AM 56.7 °F 51.6 °F 83% 30.06 in 10.0 mi Calm Calm - N/A   Clear
10:35 AM 60.1 °F 50.0 °F 69% 30.05 in 10.0 mi South 4.6 mph - N/A   Clear
10:55 AM 62.1 °F 47.5 °F 59% 30.05 in 10.0 mi SSW 8.1 mph - N/A   Clear
11:15 AM 63.5 °F 44.8 °F 51% 30.05 in 10.0 mi SSW 6.9 mph - N/A   Clear
11:35 AM 64.9 °F 44.4 °F 47% 30.04 in 10.0 mi SW 6.9 mph - N/A   Clear
11:55 AM 66.2 °F 44.4 °F 45% 30.04 in 10.0 mi South 9.2 mph - N/A   Clear
12:15 PM 67.1 °F 44.1 °F 43% 30.04 in 10.0 mi SSW 4.6 mph - N/A   Clear
12:35 PM 67.3 °F 41.7 °F 39% 30.04 in 10.0 mi South 9.2 mph - N/A   Clear
12:55 PM 68.2 °F 41.7 °F 38% 30.03 in 10.0 mi SW 6.9 mph - N/A   Clear
1:15 PM 68.7 °F 42.3 °F 38% 30.02 in 10.0 mi South 8.1 mph - N/A   Clear
1:35 PM 70.0 °F 42.8 °F 37% 30.01 in 10.0 mi South 9.2 mph - N/A   Clear
1:55 PM 70.2 °F 42.1 °F 36% 30.00 in 10.0 mi WSW 6.9 mph - N/A   Clear
2:15 PM 69.8 °F 41.2 °F 35% 30.00 in 10.0 mi SW 5.8 mph - N/A   Clear
2:35 PM 70.5 °F 41.7 °F 35% 29.98 in 10.0 mi South 11.5 mph 17.3 mph N/A   Clear
2:55 PM 71.1 °F 41.9 °F 35% 29.98 in 10.0 mi South 12.7 mph 16.1 mph N/A   Clear
3:15 PM 71.1 °F 43.0 °F 36% 29.98 in 10.0 mi South 9.2 mph - N/A   Clear
3:35 PM 70.3 °F 42.4 °F 36% 29.97 in 10.0 mi SSW 6.9 mph - N/A   Clear
3:55 PM 70.5 °F 43.3 °F 37% 29.97 in 10.0 mi SW 5.8 mph - N/A   Clear
4:15 PM 70.9 °F 44.2 °F 38% 29.97 in 10.0 mi SSW 8.1 mph - N/A   Clear
4:35 PM 70.3 °F 44.6 °F 40% 29.96 in 10.0 mi South 9.2 mph - N/A   Clear
4:55 PM 69.6 °F 45.0 °F 41% 29.96 in 10.0 mi South 8.1 mph - N/A   Clear
5:15 PM 68.9 °F 44.6 °F 42% 29.96 in 10.0 mi South 6.9 mph - N/A   Clear
5:35 PM 68.2 °F 44.4 °F 42% 29.96 in 10.0 mi South 9.2 mph - N/A   Clear
5:55 PM 67.3 °F 45.0 °F 45% 29.96 in 10.0 mi SSW 4.6 mph - N/A   Clear
6:15 PM 66.0 °F 45.5 °F 48% 29.96 in 10.0 mi SSW 3.5 mph - N/A   Clear
6:35 PM 63.9 °F 45.9 °F 52% 29.96 in 10.0 mi Calm Calm - N/A   Clear
6:55 PM 61.9 °F 46.6 °F 57% 29.96 in 10.0 mi Calm Calm - N/A   Clear
7:15 PM 56.5 °F 48.7 °F 75% 29.96 in 10.0 mi Calm Calm - N/A   Clear
7:35 PM 54.0 °F 48.4 °F 81% 29.96 in 10.0 mi East 3.5 mph - N/A   Clear
7:55 PM 53.6 °F 48.0 °F 81% 29.96 in 10.0 mi Calm Calm - N/A   Clear
8:15 PM 51.1 °F 46.9 °F 86% 29.96 in 10.0 mi Calm Calm - N/A   Clear
8:35 PM 51.1 °F 48.2 °F 90% 29.97 in 10.0 mi Calm Calm - N/A   Clear
8:55 PM 51.1 °F 46.8 °F 85% 29.96 in 10.0 mi Calm Calm - N/A   Clear
9:15 PM 49.5 °F 46.4 °F 89% 29.97 in 10.0 mi Calm Calm - N/A   Clear
9:35 PM 48.4 °F 45.3 °F 89% 29.97 in 10.0 mi Calm Calm - N/A   Clear
9:55 PM 48.2 °F 46.2 °F 93% 29.96 in 10.0 mi Calm Calm - N/A   Clear
10:15 PM 47.5 °F 45.7 °F 93% 29.96 in 10.0 mi Calm Calm - N/A   Clear
10:35 PM 47.5 °F 45.5 °F 93% 29.96 in 10.0 mi Calm Calm - N/A   Clear
10:55 PM 46.4 °F 44.8 °F 94% 29.96 in 10.0 mi Calm Calm - N/A   Clear
11:15 PM 46.4 °F 44.6 °F 93% 29.96 in 10.0 mi Calm Calm - N/A   Clear
11:35 PM 45.7 °F 44.2 °F 95% 29.95 in 10.0 mi Calm Calm - N/A   Clear
11:55 PM 45.9 °F 44.6 °F 95% 29.95 in 10.0 mi Calm Calm - N/A   Clear